Weather in Lexington

United States     38°02′53″N   84°30′01″W
temp.,
°C
wind,
m/s
gust,
m/s
humid.,
%
clouds,
%
prec.,
mm/h
press.,
hPa
HPBL,
m
26 may, thu
thu2623:00+20s61688100 2.3 1016689
02:00+19s61587100 2.6 1015795
05:00+18sse61496100 1.2 1015742
08:00+18sse61595100 1.9 1015806
11:00+19s6149398 0.4 1015851
14:00+21s81489100 2.6 10121160
17:00+19s81491100 5.0 1011862
20:00+19sse71392100 7.3 1009543
27 may, fri
fri2723:00+16s61494100 0.4 1010540
02:00+15s5129657 0.4 1010407
05:00+13sse389821 0.0 1010186
08:00+14ssw51193100 0.2 1010627
11:00+14sw51093100 0.5 1010718
14:00+17sw8108065 1.2 10091133
17:00+17wsw7107991 1.7 10091259
20:00+15w4990100 3.1 1010494
28 may, sat
sat2823:00+13wsw410965 0.0 1011244
02:00+12w4109968 0.0 1011317
05:00+13w3797100 0.0 1011507
08:00+12wnw469590 0.1 1014389
11:00+14w2388100 0.0 1015323
14:00+19wsw2272100 0.1 10141055
17:00+20sw236728 0.0 1013997
20:00+19sw11785 0.0 101416
29 may, sun
sun2923:00+14se33890 0.0 101421
02:00+13se34930 0.0 101552
05:00+13sse34940 0.0 101557
08:00+15sse36905 0.0 1016148
11:00+22ssw577253 0.0 1016650
14:00+26ssw56610 0.0 10151120
17:00+27ssw57625 0.0 10141146
20:00+24wsw33801 0.0 101543
30 may, mon
mon3023:00+19ssw348930 0.0 101661
02:00+18ssw4109397 0.0 1016172
05:00+17s37919 0.0 1018113
08:00+19s358574 0.0 1020131
11:00+25ssw46675 0.0 1021482
14:00+28sw46560 0.0 10201379
17:00+29wsw35570 0.0 10191401
20:00+26nw22740 0.0 101916